Flag for Canada Weather past 2 weeks in Igloolik, Nunavut Territory, Canada

Now
30 °F

Passing clouds.


Feels Like: 21 °F
Forecast: 31 / 46 °F
Wind: 10 mph from Northeast

Location: Hall Beach

Current Time: Sep 17, 2014 at 12:14:56 PM

Latest Report: Sep 17, 2014 at 11:00 AM


Visibility: 15 mi

Pressure: 29.82 "Hg

Humidity: 75%

Dew point: 23 °F

Location of IgloolikLocation

Historic Weather in Igloolik — Graph

°F

Igloolik temperature yesterday

Maximum temperature yesterday: 30 °F (at 10:52 AM)
Minimum temperature yesterday: 27 °F (at 12:00 AM)
Average temperature yesterday: 29 °F

Past Weeks' High & Low Weather Summary

 TemperatureHumidityPressure
High46 °F (Sep 5, 1:00 PM)100% (Sep 3, 6:00 AM)29.82 "Hg (Sep 3, 6:00 AM)
Low25 °F (Sep 13, 9:00 PM)60% (Sep 11, 4:00 PM)29.24 "Hg (Sep 13, 4:00 PM)
Average34 °F87%29.62 "Hg
* Reported Sep 2 11:00 AM — Sep 17 11:00 AM, Igloolik, Weather by CustomWeather, © 2014

Note: Actual official high and low records may vary slightly from our data, if they occured in-between our weather recording intervals... More about our weather records

Advertising

Igloolik weather history for previous 24 hours

 ConditionsComfort  
Time TempWeatherWind HumidityBarometerVisibility
11:00 AM
Sep 17
30 °FPassing clouds.10 mph75%29.82 "Hg15 mi
10:00 AM30 °FPassing clouds.12 mph75%29.82 "Hg15 mi
9:00 AM30 °FPassing clouds.12 mph80%29.82 "Hg15 mi
8:00 AM28 °FScattered clouds.13 mph80%29.81 "Hg15 mi
7:00 AM28 °FPartly sunny.13 mph74%29.80 "Hg9 mi
6:00 AM30 °FOvercast.13 mph75%29.79 "Hg9 mi
5:00 AM30 °FOvercast.15 mph75%29.78 "Hg9 mi
4:00 AM30 °FOvercast.17 mph80%29.77 "Hg9 mi
3:00 AM32 °FMostly cloudy.13 mph75%29.76 "Hg9 mi
2:00 AM32 °FMostly cloudy.17 mph69%29.75 "Hg9 mi
1:00 AM32 °FMostly cloudy.18 mph75%29.73 "Hg9 mi
12:46 AM30 °FMostly cloudy.18 mph86%29.73 "Hg9 mi
12:00 AM30 °FOvercast.21 mph80%29.72 "Hg9 mi
11:00 PM
Sep 16
30 °FPassing clouds.23 mph80%29.70 "Hg9 mi
10:02 PM30 °FLight snow. Overcast.21 mph86%29.70 "Hg5 mi
9:59 PM30 °FLight snow. Mostly cloudy.25 mph86%29.70 "Hg8 mi
9:01 PM30 °FOvercast.31 mph93%29.68 "Hg9 mi
8:54 PM30 °FPartly cloudy.30 mph93%29.68 "Hg9 mi
8:00 PM30 °FLight snow. Partly cloudy.26 mph86%29.68 "Hg6 mi
7:00 PM30 °FScattered showers. Passing clouds.25 mph86%29.67 "Hg10 mi
6:00 PM30 °FSnow flurries. Mostly cloudy.21 mph86%29.66 "Hg12 mi
5:00 PM30 °FSnow flurries. Mostly cloudy.21 mph86%29.64 "Hg10 mi
4:51 PM30 °FSnow flurries. More clouds than sun.21 mph86%29.64 "Hg12 mi
4:00 PM30 °FScattered showers. More clouds than sun.16 mph93%29.63 "Hg12 mi
3:00 PM30 °FSnow flurries. More clouds than sun.18 mph86%29.62 "Hg10 mi
2:00 PM30 °FSnow flurries. More clouds than sun.18 mph93%29.61 "Hg10 mi
1:00 PM30 °FScattered showers. Broken clouds.3 mph93%29.60 "Hg15 mi
12:49 PM30 °FScattered showers. Partly sunny.6 mph93%29.59 "Hg15 mi
12:00 PM30 °FLight snow. Partly sunny.2 mph93%29.59 "Hg10 mi
Weather by CustomWeather, © 2014

See weather overviewHow to use our weather pages